Location: Boley
(53.1150°N, 8.2269°W)
Time: 00:23:17
(UTC+00:00)

KORONAS-FOTON - Pass Details

Date: 15 May 2026
Orbit: 422 x 437 km, 82.4° (Epoch: 9 June)

Event Time Altitude Azimuth Distance (km) Brightness Sun altitude
Exits shadow 23:18:17 38° 185° (S) 686 3.9 -16.2°
Maximum altitude 23:19:28 84° 101° (E) 450 3.4 -16.3°
Drops below altitude 10° 23:22:53 10° 12° (NNE) 1,570 7.2 -16.4°
Sets 23:24:57 0° 12° (NNE) 2,446 8.4 -16.5°
